Regional Weather Roundup
Issued by NWS Newport/Morehead, NC

Current Version | Previous Version | Text Only | Print | Product List | Glossary On
Versions: 1 2 3 4 5 6 7 8 9 10 11 12 13 14 15 16 17 18 19 20 21 22 23 24 25 26 27 28 29 30 31 32 33 34 35 36 37 38 39 40 41 42 43 44 45 46 47 48 49 50
000
ASUS42 KMHX 210410
RWRMHX
WEATHER ROUNDUP FOR EASTERN NORTH CAROLINA
NATIONAL WEATHER SERVICE NEWPORT/MOREHEAD CITY NC
1200 AM EDT THU AUG 21 2014

NOTE: "FAIR" INDICATES FEW OR NO CLOUDS BELOW 12,000 FEET
WITH NO SIGNIFICANT WEATHER AND/OR OBSTRUCTIONS TO VISIBILITY

NCZ015>017-031-032-045>047-102-103-210500-
NORTH COAST

CITY           SKY/WX    TMP DP  RH WIND       PRES   REMARKS
EDENTON        CLEAR     76  73  91 SE7       30.03F
ELIZABETH CITY PTCLDY    75  71  87 S5        30.03F
KITTY HAWK     CLEAR     74  71  90 CALM      30.03S
MANTEO         CLEAR     72  72 100 CALM      30.05R

$$

NCZ045>047-081-094-103-104-210500-
CENTRAL COAST

CITY           SKY/WX    TMP DP  RH WIND       PRES   REMARKS
FRISCO         PTCLDY    74  73  97 CALM      30.04R
SWANQUARTER      N/A     77 N/A N/A NW1G7     30.00S

$$

NCZ095-097-098-100-101-210500-
SOUTHERN COAST

CITY           SKY/WX    TMP DP  RH WIND       PRES   REMARKS
BEAUFORT       CLEAR     80  76  87 CALM      30.03S
CEDAR ISLAND     N/A     79 N/A N/A S2        30.06S
JACKSONVILLE   CLEAR     75  74  96 CALM      30.03F FOG
NEWPORT        NOT AVBL
PINEY ISLAND   NOT AVBL
WILMINGTON     CLEAR     76  74  93 CALM      30.03S


$$

NCZ011>013-027>030-043-044-078>080-089-090>093-098-210500-
COASTAL PLAIN

CITY           SKY/WX    TMP DP  RH WIND       PRES   REMARKS
AHOSKIE        CLEAR     73  72  96 S3        30.02F
CLINTON        CLEAR     75  75  99 CALM      30.03S
ELIZABETHTOWN  CLEAR     77  75  95 CALM      30.03F
GOLDSBORO      CLEAR     77  76  98 S3        30.01F
GREENVILLE     CLEAR     77  75  94 CALM      30.04S FOG
HAVELOCK       CLEAR     76  74  93 SE5       30.04S
KENANSVILLE    CLEAR     73  71  96 CALM      30.04S
KINSTON        CLEAR     75  74  96 CALM      30.03F
NEW BERN       CLEAR     77  73  87 CALM      30.04F
RICHLANDS      CLEAR     73  70  88 CALM      30.03F
ROANOKE RAPIDS NOT AVBL
ROCKY MOUNT    CLEAR     74  72  93 CALM      30.02S FOG
WASHINGTON     CLEAR     75  74  95 CALM      30.03S
WHITEVILLE     CLEAR     75  73  94 CALM      30.03S

$$

AMZ130-135-150-152-154-156-158-170-250-252-270-ANZ085-086-088-633-658-670-210500-
MARINE OBSERVATIONS

STATION/POSITION TIME  TEMP    WIND        PRES    WAVE   SWELL
                       AIR SEA DIR/SP/G            HT/PER HT/PER
                 (UTC) (F)     (DEG/KT/KT) (MB)    (FT/S) (FT/S)
CHESAPEAKE LIGHT 0300   76     160/ 13/ 13 1016.7
BUOY 44014       0400   77 78  100/  6/  8 1016.5    3/ 6   2/ 6
DUCK             0400   77 79  170/  6/  7 1016.2
2E DUCK          0400                        N/A     2/ 6
OREGON INLET     0400   76 81  150/  3/  3 1017.2
BUOY 44095       0400      80                N/A     3/ 8
20E OREGON INLET NOT AVBL
HATTERAS CG      0400   79 81   CALM  /  1 1017.6
DIAMOND BUOY     0400   78      CALM  /  4 1017.0    2/ 6
CAPE LOOKOUT     0300   80     250/  4/  5 1016.9
BEAUFORT LAB     0400   80 82  250/  2/  4 1016.9
30 SE NEW RIVER  0400   82 82  250/  6/  8 1016.8    3/ 6   3/ 6
5 SE WRIGHTSVILL 0300   78 82  260/  6/  6   N/A
BUOY 41002       0310   81 81  240/ 12/ 14 1018.4    4/ 7   2/ 7
BUOY 41004       0400   84 84  230/ 12/ 12 1016.6    3/ 4   2/ 8

$$


USA.gov is the U.S. government's official web portal to all federal, state and local government web resources and services.